| time (UTC) | temp F | wind direction | speed knots | gust knots | rain 1hr in | rain 24hr in | rain mn in | humidity % | barometer mb |
| 20260904151503 | 69 | 158 | 1.7 | 3.5 | 0.00 | 0.36 | 0.01 | 91 | 1014.5 |
| 20260904150003 | 69 | 170 | 0.9 | 6.1 | 0.00 | 0.36 | 0.01 | 92 | 1014.4 |
| 20260904144600 | 68 | 120 | 0.0 | 5.2 | 0.00 | 0.36 | 0.01 | 92 | 1014.4 |
| 20260904143124 | 68 | 150 | 0.0 | 5.2 | 0.00 | 0.36 | 0.01 | 92 | 1014.3 |
| 20260904141605 | 67 | 236 | 0.9 | 1.7 | 0.00 | 0.36 | 0.01 | 93 | 1014.4 |
| 20260904140054 | 67 | 236 | 0.0 | 0.9 | 0.00 | 0.36 | 0.01 | 93 | 1014.1 |
| 20260904134559 | 67 | 236 | 0.0 | 2.6 | 0.00 | 0.36 | 0.01 | 93 | 1014.3 |
| 20260904133051 | 67 | 215 | 0.0 | 0.9 | 0.01 | 0.36 | 0.01 | 93 | 1014.2 |
| 20260904131550 | 67 | 215 | 0.0 | 2.6 | 0.01 | 0.36 | 0.01 | 93 | 1014.4 |
| 20260904130046 | 66 | 171 | 0.0 | 2.6 | 0.01 | 0.36 | 0.01 | 92 | 1014.1 |
| 20260904124543 | 66 | 63 | 0.0 | 1.7 | 0.01 | 0.36 | 0.01 | 92 | 1013.7 |
| 20260904123041 | 66 | 63 | 0.0 | 1.7 | 0.00 | 0.35 | 0.00 | 92 | 1013.7 |
| 20260904121541 | 66 | 63 | 0.9 | 1.7 | 0.00 | 0.35 | 0.00 | 92 | 1013.9 |
| 20260904120047 | 65 | 63 | 1.7 | 3.5 | 0.00 | 0.35 | 0.00 | 93 | 1013.7 |
| 20260904114538 | 65 | 63 | 0.9 | 3.5 | 0.00 | 0.35 | 0.00 | 93 | 1013.5 |
| 20260904113043 | 65 | 63 | 1.7 | 2.6 | 0.00 | 0.35 | 0.00 | 93 | 1013.4 |
| 20260904111538 | 65 | 63 | 0.9 | 1.7 | 0.00 | 0.35 | 0.00 | 93 | 1013.2 |
| 20260904110037 | 65 | 63 | 0.9 | 3.5 | 0.00 | 0.35 | 0.00 | 93 | 1012.8 |
| 20260904104549 | 65 | 42 | 1.7 | 3.5 | 0.00 | 0.35 | 0.00 | 93 | 1012.7 |
| 20260904103035 | 64 | 42 | 1.7 | 5.2 | 0.00 | 0.35 | 0.00 | 94 | 1012.5 |
| 20260904101534 | 65 | 166 | 0.0 | 0.0 | 0.00 | 0.35 | 0.00 | 93 | 1012.7 |
| 20260904100037 | 65 | 5 | 0.0 | 0.0 | 0.00 | 0.35 | 0.00 | 93 | 1012.4 |
| 20260904094534 | 65 | 5 | 0.0 | 0.0 | 0.00 | 0.35 | 0.00 | 93 | 1012.8 |
| 20260904093031 | 65 | 5 | 0.0 | 0.0 | 0.00 | 0.35 | 0.00 | 93 | 1012.9 |
| 20260904091530 | 65 | 5 | 0.0 | 0.0 | 0.00 | 0.35 | 0.00 | 93 | 1012.9 |
| 20260904090030 | 65 | 5 | 0.0 | 0.0 | 0.00 | 0.35 | 0.00 | 93 | 1012.9 |
| 20260904084535 | 65 | 5 | 0.0 | 0.0 | 0.00 | 0.35 | 0.00 | 93 | 1012.9 |
| 20260904083034 | 65 | 5 | 0.0 | 0.0 | 0.00 | 0.35 | 0.00 | 93 | 1012.8 |
| 20260904081527 | 65 | 5 | 0.0 | 0.0 | 0.00 | 0.35 | 0.00 | 93 | 1012.9 |
| 20260904080033 | 65 | 5 | 0.0 | 0.0 | 0.00 | 0.35 | 0.00 | 93 | 1013.2 |
| 20260904074525 | 66 | 5 | 0.0 | 0.0 | 0.00 | 0.35 | 0.00 | 93 | 1012.8 |
| 20260904073024 | 66 | 5 | 0.0 | 0.0 | 0.00 | 0.35 | 0.00 | 93 | 1012.6 |
| 20260904071522 | 65 | 5 | 0.0 | 0.0 | 0.00 | 0.35 | 0.00 | 93 | 1012.9 |
| 20260904070019 | 65 | 5 | 0.0 | 0.0 | 0.00 | 0.35 | 0.00 | 93 | 1013.3 |
| 20260904064525 | 65 | 5 | 0.0 | 0.0 | 0.00 | 0.35 | 0.00 | 93 | 1013.7 |
| 20260904063021 | 65 | 5 | 0.0 | 0.0 | 0.00 | 0.35 | 0.00 | 93 | 1013.7 |
| 20260904061516 | 65 | 5 | 0.0 | 0.0 | 0.00 | 0.35 | 0.00 | 93 | 1013.7 |
| 20260904060015 | 65 | 5 | 0.0 | 0.9 | 0.00 | 0.35 | 0.00 | 93 | 1013.6 |
| 20260904054515 | 65 | 5 | 0.0 | 0.0 | 0.00 | 0.35 | 0.00 | 93 | 1013.6 |
| 20260904053017 | 65 | 5 | 0.0 | 0.0 | 0.00 | 0.35 | 0.00 | 93 | 1013.7 |
| 20260904051513 | 65 | 5 | 0.0 | 1.7 | 0.00 | 0.35 | 0.00 | 93 | 1013.9 |
| 20260904050008 | 65 | 5 | 0.0 | 1.7 | 0.00 | 0.35 | 0.00 | 93 | 1013.8 |
| 20260904044506 | 66 | 5 | 0.0 | 0.0 | 0.00 | 0.35 | 0.00 | 93 | 1014.1 |
| 20260904043004 | 66 | 5 | 0.0 | 1.7 | 0.00 | 0.35 | 0.00 | 93 | 1014.0 |
| 20260904041505 | 66 | 5 | 0.0 | 0.9 | 0.00 | 0.35 | 0.00 | 93 | 1014.0 |
| 20260904040002 | 66 | 5 | 0.0 | 0.9 | 0.00 | 0.35 | 0.35 | 93 | 1013.9 |
| 20260904034600 | 66 | 5 | 0.0 | 0.0 | 0.00 | 0.35 | 0.35 | 93 | 1013.8 |
| 20260904034500 | 66 | 5 | 0.0 | 0.0 | 0.00 | 0.35 | 0.35 | 93 | 1013.7 |
| 20260904033102 | 66 | 5 | 0.0 | 0.0 | 0.00 | 0.35 | 0.35 | 93 | 1013.8 |
| 20260904031600 | 66 | 5 | 0.0 | 0.0 | 0.00 | 0.35 | 0.35 | 93 | 1013.6 |
| 20260904030059 | 66 | 5 | 0.0 | 0.0 | 0.00 | 0.35 | 0.35 | 93 | 1013.4 |
| 20260904024558 | 66 | 5 | 0.0 | 0.0 | 0.00 | 0.35 | 0.35 | 93 | 1013.4 |
| 20260904023057 | 66 | 5 | 0.0 | 0.0 | 0.00 | 0.35 | 0.35 | 93 | 1013.4 |
| 20260904021557 | 66 | 5 | 0.0 | 2.6 | 0.00 | 0.35 | 0.35 | 92 | 1013.4 |
| 20260904020056 | 67 | 10 | 1.7 | 3.5 | 0.00 | 0.35 | 0.35 | 92 | 1013.3 |
| 20260904014557 | 67 | 10 | 0.0 | 0.0 | 0.00 | 0.35 | 0.35 | 92 | 1013.2 |
| 20260904013106 | 67 | 10 | 0.0 | 0.9 | 0.00 | 0.35 | 0.35 | 93 | 1013.4 |
| 20260904011556 | 67 | 10 | 0.9 | 2.6 | 0.00 | 0.35 | 0.35 | 92 | 1013.2 |
| 20260904010053 | 67 | 5 | 2.6 | 3.5 | 0.00 | 0.35 | 0.35 | 92 | 1012.8 |
| 20260904004553 | 67 | 92 | 0.9 | 2.6 | 0.00 | 0.36 | 0.35 | 92 | 1012.5 |
| 20260904003051 | 67 | 65 | 0.9 | 3.5 | 0.00 | 0.36 | 0.35 | 92 | 1012.2 |
| 20260904001603 | 67 | 115 | 0.9 | 2.6 | 0.00 | 0.36 | 0.35 | 92 | 1012.1 |
| 20260904000051 | 67 | 115 | 0.0 | 2.6 | 0.00 | 0.36 | 0.35 | 92 | 1012.2 |
| 20260903234554 | 68 | 51 | 0.0 | 2.6 | 0.00 | 0.48 | 0.35 | 91 | 1012.1 |
| 20260903233052 | 68 | 51 | 0.9 | 3.5 | 0.00 | 0.48 | 0.35 | 91 | 1011.8 |
| 20260903231549 | 68 | 168 | 0.0 | 1.7 | 0.00 | 0.48 | 0.35 | 91 | 1011.5 |
| 20260903230049 | 68 | 168 | 1.7 | 3.5 | 0.00 | 0.48 | 0.35 | 91 | 1011.7 |
| 20260903224547 | 68 | 5 | 1.7 | 4.3 | 0.00 | 0.48 | 0.35 | 92 | 1012.2 |
| 20260903223052 | 67 | 12 | 3.5 | 7.8 | 0.00 | 0.48 | 0.35 | 92 | 1012.3 |
| 20260903221545 | 67 | 28 | 4.3 | 11.3 | 0.00 | 0.48 | 0.35 | 92 | 1011.9 |
| 20260903220059 | 68 | 26 | 9.6 | 11.3 | 0.00 | 0.48 | 0.35 | 92 | 1011.7 |
| 20260903214543 | 68 | 50 | 4.3 | 7.8 | 0.00 | 0.53 | 0.35 | 92 | 1010.6 |
| 20260903213047 | 68 | 144 | 3.5 | 7.0 | 0.01 | 0.53 | 0.35 | 92 | 1010.4 |
| 20260903211542 | 68 | 109 | 4.3 | 8.7 | 0.02 | 0.53 | 0.35 | 92 | 1010.9 |
| 20260903210049 | 68 | 106 | 2.6 | 6.1 | 0.03 | 0.53 | 0.35 | 92 | 1012.2 |
| 20260903204541 | 68 | 34 | 2.6 | 5.2 | 0.08 | 0.76 | 0.35 | 92 | 1013.3 |
| 20260903203040 | 68 | 360 | 3.5 | 6.1 | 0.11 | 0.75 | 0.34 | 92 | 1013.3 |
| 20260903201540 | 68 | 111 | 3.5 | 5.2 | 0.28 | 0.74 | 0.33 | 92 | 1012.6 |
| 20260903200039 | 68 | 355 | 0.0 | 0.9 | 0.30 | 0.73 | 0.32 | 91 | 1013.4 |
| 20260903194547 | 68 | 5 | 0.0 | 3.5 | 0.27 | 0.68 | 0.27 | 91 | 1013.5 |
| 20260903193045 | 68 | 23 | 1.7 | 9.6 | 0.23 | 0.64 | 0.23 | 89 | 1013.2 |
| 20260903191534 | 69 | 5 | 2.6 | 5.2 | 0.04 | 0.45 | 0.04 | 90 | 1013.3 |
| 20260903190033 | 70 | 38 | 4.3 | 12.2 | 0.02 | 0.43 | 0.02 | 89 | 1012.5 |
| 20260903184532 | 71 | 29 | 9.6 | 12.2 | 0.00 | 0.41 | 0.00 | 88 | 1012.0 |
| 20260903183032 | 72 | 44 | 5.2 | 8.7 | 0.00 | 0.41 | 0.00 | 87 | 1012.0 |
| 20260903181532 | 73 | 55 | 5.2 | 9.6 | 0.00 | 0.41 | 0.00 | 86 | 1011.6 |
| 20260903180029 | 74 | 96 | 4.3 | 9.6 | 0.00 | 0.41 | 0.00 | 85 | 1011.6 |
| 20260903174529 | 75 | 65 | 4.3 | 8.7 | 0.00 | 0.41 | 0.00 | 83 | 1012.0 |
| 20260903173028 | 76 | 84 | 1.7 | 7.0 | 0.00 | 0.41 | 0.00 | 82 | 1012.2 |
| 20260903171525 | 77 | 132 | 0.9 | 5.2 | 0.00 | 0.41 | 0.00 | 79 | 1012.3 |
| 20260903170028 | 78 | 117 | 3.5 | 7.0 | 0.00 | 0.41 | 0.00 | 79 | 1012.5 |
| 20260903164522 | 76 | 90 | 3.5 | 7.8 | 0.00 | 0.41 | 0.00 | 81 | 1012.5 |
| 20260903163021 | 77 | 138 | 4.3 | 6.1 | 0.00 | 0.41 | 0.00 | 78 | 1012.6 |
| 20260903161519 | 77 | 143 | 0.9 | 5.2 | 0.00 | 0.41 | 0.00 | 78 | 1012.9 |
| 20260903160019 | 76 | 132 | 2.6 | 6.1 | 0.00 | 0.41 | 0.00 | 76 | 1012.8 |
| 20260903154515 | 76 | 100 | 1.7 | 4.3 | 0.00 | 0.41 | 0.00 | 76 | 1012.7 |
| 20260903153010 | 76 | 114 | 1.7 | 7.8 | 0.00 | 0.41 | 0.00 | 75 | 1012.6 |